Toussaint Louverture International Airport
MTPP : now visible

Airfield :











YOU CAN JOIN US ON...

 
LOGIN :

Register | Disclaimer

   EN    FR    IT 

 









Legend :    VFR   Marginal VFR   IFR   Intensive IFR   Very Intensive IFR
Visi :
Ceiling :
>= 8 km
>= 3000ft
5 to 8 km
1000 to 3000 ft
1500m to 5 km
500 to 1000 ft
800 to 1500m
200 to 500 ft
< 800m
< 200 ft
Symbols :   Thunderstorms  Fog  Heavy snow  Heavy precipitations  Wind > 20 kt






- Airport Elevation : 122 ft
- IATA code : PAP


MTPP - Toussaint Louverture International

CURRENT METAR :
  • 222150Z 29006KT 9000 SCT026 OVC045 30/23 Q1015 A2999

EXPIRED METARs :
  • 222051Z 29009KT 9000 SCT026 OVC040 30/24 Q1015 A2998 RMK/CB/SE
  • 221953Z 30008KT 9000 SCT028CB OVC040 30/24 Q1015 A2999 RMK/CB/NE/NW

TAF TAF MTPP
Valid from the 22 at 18:00 until the 23 at 18:00 UTC


221750Z 2218/2318 12012KT 9000 SCT028 BKN200
PROB40
TEMPO 2223/2303 30012KT 4500 TSRA SCT014CB BKN040
BECMG 2306/2310 VRB02KT 9000 NSW FEW020
TEMPO 2314/2318 09012KT
MTEG FIR / North America



MET'MAP, your aeronautical weather chart ! - Copyright ORBIFLY December 2007 - Disclaimer

ORBIFLY MET'MAP TEAM :

Programming & Development : Alexandra Zaïnal
Concept & original design : Baudouin d'Aumeries
Assistance for programming : Marc-Olivier Méhu
Technical & hardware support : Manuel Goepfert

Contact : metmap@orbifly.com




SOURCES & CREDITS :

   NOAA       Earth
Advisory